DW9918 Weather Reports


Display with metric or nautical units.
time (UTC)temp
F
wind
direction
speed
MPH
gust
MPH
rain 1hr
in
rain 24hr
in
rain mn
in
humidity
%
barometer
mb
20260902164504 83 88 7.0 9.0 0.00 0.00 0.00 65 1016.3
20260902164130 84 88 7.0 9.0 0.00 0.00 0.00 65 1016.4
20260902163156 84 85 6.0 8.0 0.00 0.00 0.00 65 1016.5
20260902163004 83 82 5.0 7.0 0.00 0.00 0.00 64 1016.4
20260902162134 84 87 5.0 8.0 0.00 0.00 0.00 62 1016.6
20260902161503 84 85 6.0 8.0 0.00 0.00 0.00 60 1016.6
20260902161137 84 87 4.0 7.0 0.00 0.00 0.00 62 1016.8
20260902160142 85 82 6.0 8.0 0.00 0.00 0.00 61 1016.7
20260902160018 84 89 6.0 8.0 0.00 0.00 0.00 61 1016.7
20260902155133 84 91 4.0 8.0 0.00 0.00 0.00 62 1016.8
20260902154513 84 82 5.0 9.0 0.00 0.00 0.00 64 1016.7
20260902154142 85 87 5.0 9.0 0.00 0.00 0.00 64 1016.8
20260902153131 85 63 4.0 11.0 0.00 0.00 0.00 62 1016.8
20260902153009 84 58 4.0 11.0 0.00 0.00 0.00 62 1016.7
20260902152134 85 84 5.0 12.0 0.00 0.00 0.00 63 1016.9
20260902151509 85 65 8.0 12.0 0.00 0.00 0.00 59 1016.7
20260902151135 85 56 5.0 9.0 0.00 0.00 0.00 65 1016.8
20260902150137 85 86 5.0 10.0 0.00 0.00 0.00 65 1016.9
20260902150004 85 87 6.0 10.0 0.00 0.00 0.00 65 1016.7
20260902145136 85 79 9.0 13.0 0.00 0.00 0.00 63 1016.8
20260902144503 84 88 8.0 12.0 0.00 0.00 0.00 67 1016.8
20260902144131 85 96 8.0 12.0 0.00 0.00 0.00 65 1016.9
20260902143131 85 89 11.0 14.0 0.00 0.00 0.00 65 1017.0
20260902143024 84 94 9.0 14.0 0.00 0.00 0.00 66 1016.8
20260902142130 85 98 6.0 11.0 0.00 0.00 0.00 65 1017.0
20260902141524 84 52 5.0 11.0 0.00 0.00 0.00 63 1017.1
20260902141133 85 98 4.0 11.0 0.00 0.00 0.00 63 1017.1
20260902140133 86 81 7.0 11.0 0.00 0.00 0.00 62 1017.2
20260902140026 85 96 7.0 11.0 0.00 0.00 0.00 62 1017.1
20260902135131 85 64 8.0 11.0 0.00 0.00 0.00 62 1017.2
20260902134510 85 40 7.0 11.0 0.00 0.00 0.00 60 1017.2
20260902134142 86 58 5.0 10.0 0.00 0.00 0.00 61 1017.3
20260902133124 86 88 6.0 10.0 0.00 0.00 0.00 58 1017.4
20260902133007 86 80 5.0 10.0 0.00 0.00 0.00 57 1017.3
20260902132133 87 78 5.0 7.0 0.00 0.00 0.00 58 1017.4
20260902131507 87 100 3.0 8.0 0.00 0.00 0.00 58 1017.4
20260902131151 88 95 4.0 8.0 0.00 0.00 0.00 57 1017.4
20260902130203 88 333 1.0 7.0 0.00 0.00 0.00 52 1017.6
20260902130025 88 333 1.0 7.0 0.00 0.00 0.00 51 1017.5
20260902125125 89 324 3.0 8.0 0.00 0.00 0.00 51 1017.6
20260902124531 88 16 1.0 6.0 0.00 0.00 0.00 51 1017.7
20260902124133 88 20 2.0 6.0 0.00 0.00 0.00 53 1017.9
20260902123131 87 23 3.0 7.0 0.00 0.00 0.00 52 1018.0
20260902123021 87 19 4.0 7.0 0.00 0.00 0.00 51 1017.9
20260902122129 88 318 3.0 10.0 0.00 0.00 0.00 52 1018.0
20260902121512 87 39 4.0 8.0 0.00 0.00 0.00 50 1018.0
20260902121131 87 329 3.0 8.0 0.00 0.00 0.00 52 1018.2
20260902120159 87 21 3.0 10.0 0.00 0.00 0.00 53 1018.2
20260902120011 87 53 4.0 10.0 0.00 0.00 0.00 53 1018.1
20260902115147 87 93 5.0 10.0 0.00 0.00 0.00 55 1018.2
20260902114529 87 61 3.0 9.0 0.00 0.00 0.00 52 1018.1
20260902114156 88 49 5.0 9.0 0.00 0.00 0.00 51 1018.3
20260902113137 89 71 3.0 9.0 0.00 0.00 0.00 53 1018.3
20260902113027 88 323 2.0 9.0 0.00 0.00 0.00 51 1018.1
20260902112133 88 281 3.0 8.0 0.00 0.00 0.00 52 1018.4
20260902111527 87 359 4.0 9.0 0.00 0.00 0.00 51 1018.3
20260902111127 88 348 4.0 9.0 0.00 0.00 0.00 51 1018.5
20260902110131 88 334 4.0 10.0 0.00 0.00 0.00 53 1018.7
20260902110022 87 333 5.0 10.0 0.00 0.00 0.00 55 1018.5
20260902105131 87 29 1.0 8.0 0.00 0.00 0.00 54 1018.8
20260902104517 87 3 5.0 8.0 0.00 0.00 0.00 53 1018.6
20260902104130 87 61 4.0 8.0 0.00 0.00 0.00 54 1018.8
20260902103129 87 328 2.0 8.0 0.00 0.00 0.00 57 1018.9
20260902103019 86 327 4.0 8.0 0.00 0.00 0.00 57 1018.8
20260902102131 86 8 4.0 12.0 0.00 0.00 0.00 57 1019.1
20260902101542 86 18 3.0 9.0 0.00 0.00 0.00 61 1019.0
20260902101138 86 325 3.0 9.0 0.00 0.00 0.00 63 1019.1
20260902100128 85 335 5.0 11.0 0.00 0.00 0.00 60 1019.2
20260902100030 85 315 6.0 11.0 0.00 0.00 0.00 60 1019.1
20260902095156 85 332 4.0 10.0 0.00 0.00 0.00 62 1019.3
20260902094530 84 309 4.0 9.0 0.00 0.00 0.00 61 1019.2
20260902094146 85 315 5.0 9.0 0.00 0.00 0.00 63 1019.3
20260902093143 84 319 4.0 9.0 0.00 0.00 0.00 62 1019.3
20260902093026 84 354 3.0 10.0 0.00 0.00 0.00 63 1019.3
20260902092127 83 333 7.0 11.0 0.00 0.00 0.00 64 1019.3
20260902091527 83 336 5.0 11.0 0.00 0.00 0.00 65 1019.2
20260902091139 83 305 8.0 11.0 0.00 0.00 0.00 63 1019.3
20260902090125 83 326 6.0 11.0 0.00 0.00 0.00 65 1019.2
20260902090018 82 314 5.0 9.0 0.00 0.00 0.00 65 1019.2
20260902085131 82 301 5.0 10.0 0.00 0.00 0.00 66 1019.3
20260902084546 81 295 6.0 9.0 0.00 0.00 0.00 65 1019.2
20260902084134 82 304 3.0 9.0 0.00 0.00 0.00 66 1019.2
20260902083127 81 303 4.0 9.0 0.00 0.00 0.00 71 1019.2
20260902083009 80 303 5.0 9.0 0.00 0.00 0.00 69 1019.1
20260902082150 80 309 5.0 9.0 0.00 0.00 0.00 72 1019.1
20260902081505 79 288 6.0 9.0 0.00 0.00 0.00 72 1018.9
20260902081134 79 316 4.0 9.0 0.00 0.00 0.00 73 1019.0
20260902080125 79 298 5.0 8.0 0.00 0.00 0.00 73 1019.0
20260902080005 78 302 3.0 6.0 0.00 0.00 0.00 73 1018.8
20260902075152 78 312 2.0 8.0 0.00 0.00 0.00 75 1018.9
20260902074504 76 311 5.0 9.0 0.00 0.00 0.00 74 1018.7
20260902074142 77 299 5.0 9.0 0.00 0.00 0.00 74 1018.9
20260902073132 77 297 6.0 11.0 0.00 0.00 0.00 74 1018.8
20260902073023 76 268 5.0 11.0 0.00 0.00 0.00 74 1018.6
20260902072128 76 286 6.0 9.0 0.00 0.00 0.00 75 1018.7
20260902071516 75 308 4.0 9.0 0.00 0.00 0.00 76 1018.5
20260902071150 75 304 6.0 9.0 0.00 0.00 0.00 75 1018.6
20260902070131 75 306 5.0 10.0 0.00 0.00 0.00 76 1018.6
20260902070015 74 297 6.0 10.0 0.00 0.00 0.00 76 1018.4
20260902065140 75 293 4.0 8.0 0.00 0.00 0.00 77 1018.5
20260902064511 74 257 5.0 8.0 0.00 0.00 0.00 78 1018.3
20260902064128 74 291 6.0 8.0 0.00 0.00 0.00 78 1018.5
20260902063140 74 288 3.0 7.0 0.00 0.00 0.00 79 1018.4
20260902063008 73 304 3.0 7.0 0.00 0.00 0.00 79 1018.3
20260902062129 73 305 3.0 7.0 0.00 0.00 0.00 81 1018.4
20260902061504 72 297 3.0 7.0 0.00 0.00 0.00 83 1018.3
20260902061131 72 304 2.0 5.0 0.00 0.00 0.00 84 1018.4
20260902060155 71 278 4.0 5.0 0.00 0.00 0.00 86 1018.5
20260902060026 70 278 4.0 5.0 0.00 0.00 0.00 86 1018.3
20260902055136 70 263 3.0 5.0 0.00 0.00 0.00 87 1018.5
20260902054523 69 238 3.0 5.0 0.00 0.00 0.00 87 1018.3
20260902054129 70 240 3.0 5.0 0.00 0.00 0.00 87 1018.5
20260902053126 69 256 2.0 4.0 0.00 0.00 0.00 88 1018.4
20260902053018 68 228 2.0 4.0 0.00 0.00 0.00 88 1018.3
20260902052155 68 250 2.0 4.0 0.00 0.00 0.00 89 1018.3
20260902051512 67 257 1.0 3.0 0.00 0.00 0.00 89 1018.1
20260902051137 68 245 2.0 3.0 0.00 0.00 0.00 89 1018.2
20260902050133 68 250 2.0 4.0 0.00 0.00 0.00 89 1018.1
20260902050009 67 233 2.0 4.0 0.00 0.00 0.00 89 1018.0
20260902045134 68 249 2.0 3.0 0.00 0.00 0.00 89 1018.0
20260902044504 67 248 2.0 4.0 0.00 0.00 0.00 88 1018.0
20260902044136 68 246 1.0 4.0 0.00 0.00 0.00 88 1018.1
20260902043156 68 226 1.0 3.0 0.00 0.00 0.00 88 1018.1
20260902043030 68 221 1.0 3.0 0.00 0.00 0.00 88 1018.0
20260902042159 69 195 0.0 2.0 0.00 0.00 0.00 88 1018.0
20260902041523 68 229 0.0 3.0 0.00 0.00 0.00 88 1017.9
20260902041137 69 231 1.0 3.0 0.00 0.00 0.00 89 1017.9
20260902040130 69 227 0.0 2.0 0.00 0.00 0.00 89 1018.0
20260902040023 69 229 0.0 2.0 0.00 0.00 0.00 88 1017.9
20260902035130 69 216 1.0 2.0 0.00 0.00 0.00 89 1017.9
20260902034516 69 224 0.0 2.0 0.00 0.00 0.00 88 1017.8
20260902034129 70 216 1.0 2.0 0.00 0.00 0.00 89 1017.9
20260902033144 70 217 0.0 2.0 0.00 0.00 0.00 89 1018.0
20260902033012 69 219 0.0 3.0 0.00 0.00 0.00 89 1018.0
20260902032157 70 235 2.0 3.0 0.00 0.00 0.00 90 1018.0
20260902031534 70 257 0.0 1.0 0.00 0.00 0.00 89 1017.9
20260902031142 70 262 1.0 1.0 0.00 0.00 0.00 90 1018.0
20260902030154 70 242 0.0 3.0 0.00 0.00 0.00 88 1018.0
20260902030030 70 242 0.0 3.0 0.00 0.00 0.00 88 1017.9
20260902025135 71 217 0.0 4.0 0.00 0.00 0.00 89 1017.9
20260902024529 70 195 1.0 3.0 0.00 0.00 0.00 89 1017.8
20260902024131 70 227 1.0 3.0 0.00 0.00 0.00 89 1017.9
20260902023132 70 229 1.0 2.0 0.00 0.00 0.00 89 1017.9
20260902023025 70 226 2.0 2.0 0.00 0.00 0.00 89 1017.8
20260902022202 71 240 2.0 2.0 0.00 0.00 0.00 88 1017.9
20260902021522 71 234 0.0 2.0 0.00 0.00 0.00 88 1017.7
20260902021152 71 225 0.0 2.0 0.00 0.00 0.00 89 1017.9
20260902020136 71 205 0.0 2.0 0.00 0.00 0.00 89 1017.9
20260902020022 71 200 0.0 2.0 0.00 0.00 0.00 88 1017.8
20260902015142 72 232 1.0 2.0 0.00 0.00 0.00 89 1017.8
20260902014540 71 234 0.0 1.0 0.00 0.00 0.00 88 1017.7
20260902014137 72 236 0.0 1.0 0.00 0.00 0.00 90 1017.9
20260902013139 73 236 1.0 1.0 0.00 0.00 0.00 89 1017.8
20260902013031 72 236 1.0 1.0 0.00 0.00 0.00 89 1017.7
20260902012132 72 229 0.0 2.0 0.00 0.00 0.00 89 1017.9
20260902011530 72 229 1.0 2.0 0.00 0.00 0.00 89 1017.7
20260902011134 72 223 0.0 1.0 0.00 0.00 0.00 89 1017.8
20260902010138 73 210 0.0 2.0 0.00 0.00 0.00 90 1017.8
20260902010027 72 209 0.0 3.0 0.00 0.00 0.00 89 1017.6
20260902005137 72 167 0.0 2.0 0.00 0.00 0.00 87 1017.8
20260902004528 72 13 0.0 0.0 0.00 0.00 0.00 85 1017.6
20260902004153 73 14 0.0 0.0 0.00 0.00 0.00 87 1017.8
20260902003146 73 13 0.0 0.0 0.00 0.00 0.00 87 1017.8
20260902003029 72 14 0.0 0.0 0.00 0.00 0.00 87 1017.7
20260902002127 73 13 0.0 0.0 0.00 0.00 0.00 86 1017.9
20260902001518 73 13 0.0 0.0 0.00 0.00 0.00 87 1017.6
20260902001129 74 13 0.0 0.0 0.00 0.00 0.00 88 1017.8
20260902000150 74 14 0.0 0.0 0.00 0.00 0.00 87 1017.9
20260902000015 74 13 0.0 0.0 0.00 0.00 0.00 87 1017.7
20260901235141 75 13 0.0 0.0 0.00 0.00 0.00 88 1017.8
20260901234509 74 14 0.0 0.0 0.00 0.00 0.00 88 1017.6
20260901234138 75 13 0.0 0.0 0.00 0.00 0.00 88 1017.7
20260901233144 75 14 0.0 0.0 0.00 0.00 0.00 88 1017.9
20260901233011 74 13 0.0 0.0 0.00 0.00 0.00 87 1017.7
20260901232127 75 14 0.0 0.0 0.00 0.00 0.00 87 1017.9
20260901231504 74 13 0.0 0.0 0.00 0.00 0.00 86 1017.8
20260901231130 75 13 0.0 0.0 0.00 0.00 0.00 86 1018.0
20260901230201 75 13 0.0 0.0 0.00 0.00 0.00 86 1018.0
20260901230027 75 13 0.0 0.0 0.00 0.00 0.00 85 1017.8
20260901225133 76 14 0.0 0.0 0.00 0.00 0.00 86 1017.9
20260901224523 75 14 0.0 0.0 0.00 0.00 0.00 85 1017.8
20260901224150 76 13 0.0 0.0 0.00 0.00 0.00 86 1018.0
20260901223130 76 44 0.0 0.0 0.00 0.00 0.00 86 1018.0
20260901223022 76 44 0.0 0.0 0.00 0.00 0.00 86 1017.8
20260901222203 76 44 0.0 0.0 0.00 0.00 0.00 85 1017.9
20260901221512 76 46 0.0 1.0 0.00 0.00 0.00 84 1017.7
20260901221138 76 52 0.0 1.0 0.00 0.00 0.00 85 1017.9
20260901220147 77 52 0.0 0.0 0.00 0.00 0.00 85 1017.9
20260901220012 76 52 0.0 0.0 0.00 0.00 0.00 85 1017.8
20260901215131 76 52 0.0 0.0 0.00 0.00 0.00 85 1017.8
20260901214504 76 52 0.0 0.0 0.00 0.00 0.00 83 1017.7
20260901214135 77 52 0.0 1.0 0.00 0.00 0.00 84 1017.8
20260901213147 77 52 0.0 1.0 0.00 0.00 0.00 82 1017.8
20260901213044 76 52 0.0 1.0 0.00 0.00 0.00 82 1017.6
20260901212154 77 52 0.0 1.0 0.00 0.00 0.00 82 1017.7
20260901211523 76 87 0.0 1.0 0.00 0.00 0.00 82 1017.6
20260901211127 77 87 0.0 1.0 0.00 0.00 0.00 81 1017.6
20260901210131 77 26 0.0 2.0 0.00 0.00 0.00 81 1017.6
20260901210019 76 26 0.0 2.0 0.00 0.00 0.00 81 1017.5
20260901205130 77 20 1.0 2.0 0.00 0.00 0.00 82 1017.8
20260901204518 76 5 0.0 3.0 0.00 0.00 0.00 80 1017.7
20260901204133 77 5 2.0 3.0 0.00 0.00 0.00 80 1017.8
20260901203128 76 40 0.0 0.0 0.00 0.00 0.00 80 1017.7
20260901203011 76 40 0.0 1.0 0.00 0.00 0.00 80 1017.5
20260901202131 77 40 0.0 2.0 0.00 0.00 0.00 79 1017.4
20260901201508 77 49 0.0 0.0 0.00 0.00 0.00 79 1017.4
20260901201139 77 50 0.0 0.0 0.00 0.00 0.00 79 1017.5
20260901200136 78 51 0.0 1.0 0.00 0.00 0.00 78 1017.5
20260901200031 77 51 0.0 1.0 0.00 0.00 0.00 78 1017.4
20260901195139 78 50 0.0 1.0 0.00 0.00 0.00 78 1017.5
20260901194529 77 91 0.0 0.0 0.00 0.00 0.00 77 1017.4
20260901194210 78 91 0.0 0.0 0.00 0.00 0.00 77 1017.5
20260901193156 78 91 0.0 0.0 0.00 0.00 0.00 77 1017.5
20260901193026 78 91 0.0 0.0 0.00 0.00 0.00 76 1017.4
20260901192138 78 91 0.0 2.0 0.00 0.00 0.00 77 1017.5
20260901191520 78 93 0.0 1.0 0.00 0.00 0.00 76 1017.3
20260901191151 79 93 0.0 1.0 0.00 0.00 0.00 76 1017.4
20260901190154 79 94 0.0 0.0 0.00 0.00 0.00 75 1017.2
20260901190018 78 93 0.0 0.0 0.00 0.00 0.00 75 1017.1
20260901185133 79 93 0.0 1.0 0.00 0.00 0.00 75 1017.2
20260901184542 79 94 0.0 3.0 0.00 0.00 0.00 74 1016.9
20260901184133 80 86 1.0 3.0 0.00 0.00 0.00 74 1016.9
20260901183142 80 84 2.0 4.0 0.00 0.00 0.00 74 1017.0
20260901183034 79 89 3.0 4.0 0.00 0.00 0.00 73 1016.9
20260901182125 79 84 2.0 3.0 0.00 0.00 0.00 73 1017.0
20260901181533 79 88 2.0 5.0 0.00 0.00 0.00 72 1016.8
20260901181131 80 94 3.0 6.0 0.00 0.00 0.00 72 1016.9
20260901180130 80 90 4.0 7.0 0.00 0.00 0.00 71 1016.8
20260901180026 80 98 5.0 7.0 0.00 0.00 0.00 71 1016.6
20260901175134 80 86 4.0 6.0 0.00 0.00 0.00 71 1016.8
20260901174526 80 92 4.0 7.0 0.00 0.00 0.00 70 1016.6
20260901174135 81 91 4.0 7.0 0.00 0.00 0.00 70 1016.7
20260901173141 81 88 6.0 9.0 0.00 0.00 0.00 69 1016.7
20260901173021 80 102 6.0 8.0 0.00 0.00 0.00 69 1016.6
20260901172130 81 79 6.0 8.0 0.00 0.00 0.00 69 1016.7
20260901171516 81 87 6.0 10.0 0.00 0.00 0.00 68 1016.6
20260901171150 81 91 6.0 10.0 0.00 0.00 0.00 68 1016.7
20260901170213 82 93 7.0 10.0 0.00 0.00 0.00 67 1016.7
20260901170012 81 98 8.0 9.0 0.00 0.00 0.00 66 1016.6
20260901165140 82 89 8.0 11.0 0.00 0.00 0.00 66 1016.7